Simultaneous Nadir Overpasses (SNOs) Predictions

Prediction of SNOs between METOP-A and NOAA-19 Satellite Orbit:

Table of predicted SNOs for the next 14.0 days since TLE Epoch: 2/27/2021
Index Date (METOP-A) Time (METOP-A) Lat,Lon (METOP-A) SZA (METOP-A ) Date (NOAA-19) Time (NOAA-19) Lat,Lon (NOAA-19) SZA (NOAA-19 ) Distance(km) Time Diff (sec)
1 03/06/2021 02:40:24 -80.86, -28.41 93.47 03/06/2021 02:39:14 -80.85, -28.46 93.49 1.58 70
2 03/06/2021 03:31:05 80.85, 138.77 86.51 03/06/2021 03:30:12 80.85, 138.66 86.50 1.85 53
3 03/06/2021 04:21:46 -80.85, -53.89 93.51 03/06/2021 04:21:14 -80.85, -53.81 93.51 1.61 32
4 03/06/2021 05:12:27 80.84, 113.28 86.47 03/06/2021 05:12:12 80.85, 113.32 86.48 1.22 15
5 03/06/2021 06:03:08 -80.84, -79.38 93.55 03/06/2021 06:03:15 -80.85, -79.52 93.54 2.53 7
6 03/06/2021 06:53:48 80.85, 88.14 86.46 03/06/2021 06:54:12 80.85, 87.97 86.45 2.94 24
7 03/06/2021 07:44:29 -80.85,-104.53 93.56 03/06/2021 07:45:14 -80.85,-104.49 93.56 1.11 45



Historial Predications of SNOs between METOP-A and NOAA-19
